TimeMST,TemperatureF,Dew PointF,Humidity,Sea Level PressureIn,VisibilityMPH,Wind Direction,Wind SpeedMPH,Gust SpeedMPH,PrecipitationIn,Events,Conditions,WindDirDegrees,DateUTC
12:53 AM,37.9,19.0,47,29.74,10.0,South,13.8,-,N/A,,Clear,190,2013-02-09 07:53:00
1:53 AM,37.0,19.0,48,29.74,10.0,SSW,18.4,25.3,N/A,,Clear,200,2013-02-09 08:53:00
2:53 AM,36.0,18.0,48,29.73,10.0,South,16.1,-,N/A,,Clear,190,2013-02-09 09:53:00
3:53 AM,34.0,18.0,52,29.73,10.0,South,11.5,-,N/A,,Clear,170,2013-02-09 10:53:00
4:53 AM,34.0,18.0,52,29.73,10.0,South,8.1,-,N/A,,Clear,190,2013-02-09 11:53:00
5:53 AM,27.0,17.1,66,29.76,10.0,Calm,Calm,-,N/A,,Clear,0,2013-02-09 12:53:00
6:53 AM,24.1,16.0,71,29.78,10.0,SSE,3.5,-,N/A,,Clear,160,2013-02-09 13:53:00
7:53 AM,30.9,19.9,64,29.77,10.0,SE,5.8,-,N/A,,Clear,140,2013-02-09 14:53:00
8:53 AM,37.9,21.0,51,29.74,10.0,SE,4.6,-,N/A,,Clear,140,2013-02-09 15:53:00
9:53 AM,45.0,21.0,39,29.70,10.0,South,10.4,-,N/A,,Clear,180,2013-02-09 16:53:00
10:53 AM,48.9,21.0,33,29.64,10.0,South,16.1,-,N/A,,Clear,170,2013-02-09 17:53:00
11:53 AM,53.1,21.0,29,29.59,10.0,SSE,16.1,23.0,N/A,,Clear,160,2013-02-09 18:53:00
12:53 PM,55.9,21.0,26,29.52,10.0,SSE,15.0,24.2,N/A,,Clear,160,2013-02-09 19:53:00
1:53 PM,57.0,23.0,27,29.47,10.0,SE,19.6,28.8,N/A,,Clear,140,2013-02-09 20:53:00
2:53 PM,57.0,24.1,28,29.45,10.0,SSE,20.7,31.1,N/A,,Clear,160,2013-02-09 21:53:00
3:53 PM,54.0,24.1,31,29.44,10.0,South,18.4,-,N/A,,Partly Cloudy,170,2013-02-09 22:53:00
4:53 PM,52.0,24.1,34,29.44,10.0,SSW,25.3,31.1,N/A,,Overcast,200,2013-02-09 23:53:00
5:28 PM,42.8,33.8,70,29.46,8.0,West,23.0,38.0,0.00,Rain,Light Rain,270,2013-02-10 00:28:00
5:51 PM,41.0,35.6,81,29.48,7.0,WNW,15.0,26.5,0.04,Rain-Thunderstorm,Light Rain,290,2013-02-10 00:51:00
5:52 PM,41.0,35.1,79,29.53,7.0,WNW,15.0,-,0.04,Rain-Thunderstorm,Light Rain,290,2013-02-10 00:52:00
6:01 PM,39.2,35.6,87,29.47,10.0,WNW,16.1,-,0.00,Rain-Thunderstorm,Light Rain,290,2013-02-10 01:01:00
6:29 PM,33.8,30.2,87,29.46,10.0,NW,23.0,31.1,0.01,,Mostly Cloudy,310,2013-02-10 01:29:00
6:53 PM,33.1,28.9,85,29.53,10.0,NW,13.8,23.0,0.01,,Mostly Cloudy,310,2013-02-10 01:53:00
7:18 PM,32.0,28.4,87,29.45,4.0,NW,24.2,29.9,0.01,Rain,Light Freezing Rain,310,2013-02-10 02:18:00
7:28 PM,30.2,28.4,93,29.43,2.5,NW,23.0,32.2,0.04,Rain,Light Freezing Rain,310,2013-02-10 02:28:00
7:32 PM,30.2,28.4,93,29.44,3.0,NW,20.7,29.9,0.05,Rain,Light Freezing Rain,310,2013-02-10 02:32:00
7:53 PM,30.9,28.9,92,29.49,10.0,North,19.6,-,0.06,Rain,Light Freezing Rain,350,2013-02-10 02:53:00
8:05 PM,30.2,28.4,93,29.40,10.0,North,17.3,-,0.00,,Clear,350,2013-02-10 03:05:00
8:53 PM,30.0,28.0,92,29.46,10.0,NNW,13.8,-,0.00,,Overcast,340,2013-02-10 03:53:00
9:53 PM,30.0,27.0,88,29.44,10.0,NW,20.7,26.5,N/A,,Overcast,320,2013-02-10 04:53:00
10:10 PM,30.2,26.6,86,29.40,10.0,NW,16.1,-,N/A,,Unknown,320,2013-02-10 05:10:00
10:53 PM,28.9,26.1,89,29.42,2.5,NNW,17.3,26.5,N/A,Snow,Light Snow,330,2013-02-10 05:53:00
11:02 PM,28.4,26.6,93,29.39,2.0,North,-9999.0,-,0.00,Snow,Light Snow,0,2013-02-10 06:02:00
11:19 PM,28.4,26.6,93,29.40,4.0,NW,16.1,26.5,0.00,,Overcast,320,2013-02-10 06:19:00
11:46 PM,28.4,26.6,93,29.40,4.0,NW,18.4,25.3,0.00,,Overcast,310,2013-02-10 06:46:00
11:53 PM,28.0,25.0,88,29.42,4.0,NW,20.7,27.6,0.00,,Overcast,320,2013-02-10 06:53:00